PROBA-1 1 26958U 01049B 26062.64871236 .00002218 00000+0 14746-3 0 9994 2 26958 97.9620 67.5182 0056976 118.7984 241.8981 15.06981164327720 CUTE-1 (CO-55) 1 27844U 03031E 26062.59243050 .00000460 00000+0 21825-3 0 9996 2 27844 98.6778 72.4669 0010485 128.3914 231.8208 14.24260210176642 CUBESAT XI-IV (CO-57) 1 27848U 03031J 26062.45798097 .00000377 00000+0 18495-3 0 9997 2 27848 98.6808 72.1317 0010118 145.3523 214.8316 14.23556086176330 APRIZESAT 4 1 35684U 09041D 26062.45038324 .00001129 00000+0 14166-3 0 9998 2 35684 98.1499 135.6442 0042296 305.5261 54.2011 14.83694161895680 APRIZESAT 3 1 35686U 09041F 26062.35661444 .00003018 00000+0 26517-3 0 9996 2 35686 98.1883 210.6317 0063228 57.4098 303.3204 14.95868124900553 PROBA-2 1 36037U 09059B 26062.59880778 .00000415 00000+0 10738-3 0 9991 2 36037 98.2426 247.4171 0012106 244.4994 115.4952 14.54786073866174 APRIZESAT 5 1 37792U 11044E 26062.26897107 .00001925 00000+0 25136-3 0 9990 2 37792 98.2402 352.3647 0052208 345.3619 14.6077 14.80832104783119 APRIZESAT 6 1 37793U 11044F 26062.65746127 .00001263 00000+0 18528-3 0 9991 2 37793 98.2424 330.9852 0044499 64.2950 8.4344 14.76736700781578 PROBA-V 1 39159U 13021A 26062.55059526 .00000105 00000+0 64191-4 0 9997 2 39159 98.3497 46.4236 0005385 83.8944 276.2849 14.23571766666087 APRIZESAT 7 1 39416U 13066A 26062.41797432 .00002137 00000+0 21797-3 0 9993 2 39416 97.7588 17.2566 0035333 199.7551 160.2301 14.91256988665463 APRIZESAT 8 1 39425U 13066K 26062.33099632 .00001806 00000+0 20239-3 0 9993 2 39425 97.8109 11.3668 0044602 274.6248 84.9874 14.87400863663931 BUGSAT-1 (TITA) 1 40014U 14033E 26062.62581701 .00008877 00000+0 48233-3 0 9998 2 40014 98.0450 149.1064 0028934 178.6448 181.4866 15.14404260639858 SAUDISAT 4 1 40016U 14033G 26062.40789407 .00001132 00000+0 15603-3 0 9991 2 40016 97.7399 212.3079 0046079 58.7184 301.8528 14.79375613630439 APRIZESAT 9 1 40018U 14033J 26062.31964085 .00001393 00000+0 21201-3 0 9990 2 40018 97.8869 198.2216 0066394 179.5739 180.5538 14.74055785627966 APRIZESAT 10 1 40019U 14033K 26062.33984980 .00001043 00000+0 17163-3 0 9993 2 40019 97.9468 191.7741 0077736 251.4769 107.7980 14.70737930626695 TECHDEMOSAT-1 (TDS-1) 1 40076U 14037H 26062.50091141 .00013039 00000+0 77550-3 0 9991 2 40076 98.3761 44.4246 0004668 266.2821 93.7873 15.11402252632256 TECHNOSAT 1 42829U 17042E 26062.50792049 .00005474 00000+0 39639-3 0 9993 2 42829 97.4142 224.3165 0019631 95.0585 265.2883 15.04219781470811 FLYING LAPTOP 1 42831U 17042G 26062.64287244 .00002689 00000+0 21738-3 0 9993 2 42831 97.4246 222.5866 0018446 115.1380 245.1761 15.00464702470629 HAWK-A 1 43765U 18099H 26062.63239317 .00010150 00000+0 42605-3 0 9998 2 43765 97.4066 116.2794 0034483 297.8152 61.9592 15.23111877397024 HAWK-B 1 43794U 18099AN 26062.59761147 .00008623 00000+0 38190-3 0 9992 2 43794 97.4116 115.8716 0031730 315.8428 44.0275 15.21423660396977 HAWK-C 1 43799U 18099AT 26062.64125256 .00011452 00000+0 43403-3 0 9995 2 43799 97.4042 116.7041 0040658 299.6039 60.1152 15.26266505397801 SALSAT 1 46495U 20068K 26062.51776139 .00012370 00000+0 45462-3 0 9995 2 46495 97.8847 59.2897 0008762 322.7272 37.3357 15.28032703299213 HAWK-2C 1 47502U 21006CT 26062.60639105 .00009102 00000+0 28616-3 0 9990 2 47502 97.2426 109.0494 0006283 206.6811 153.4110 15.33176021283311 HAWK-2A 1 47505U 21006CW 26062.60997309 .00012446 00000+0 39003-3 0 9993 2 47505 97.2469 109.6680 0005811 210.2757 149.8151 15.33196470283314 HAWK-2B 1 47508U 21006CZ 26062.60673384 .00009308 00000+0 29264-3 0 9991 2 47508 97.2341 108.1738 0006447 208.0039 152.0858 15.33168128283317 HAWK-3B 1 48931U 21059BE 26062.46119439 .00040232 00000+0 47913-3 0 9992 2 48931 97.6711 249.8313 0005422 1.9140 358.2136 15.60990994261319 HAWK-3C 1 48948U 21059BX 26062.52506706 .00051094 00000+0 60697-3 0 9996 2 48948 97.6860 255.3873 0006072 2.1760 357.9522 15.61001046261326 HAWK-3A 1 48957U 21059CG 26062.52489462 .00050220 00000+0 59670-3 0 9994 2 48957 97.6798 252.6810 0005543 1.3273 358.7997 15.61003624261328 HAWK-5C 1 52754U 22057Y 26062.64549511 .00028050 00000+0 55205-3 0 9994 2 52754 97.6444 215.9359 0005647 95.6619 264.5275 15.47205886210001 HAWK-5B 1 52756U 22057AA 26062.58069076 .00027659 00000+0 54444-3 0 9990 2 52756 97.6443 214.2074 0005633 90.9671 269.2224 15.47204381209990 HAWK-5A 1 52757U 22057AB 26062.58041066 .00028571 00000+0 56226-3 0 9994 2 52757 97.6447 215.0415 0006012 92.7143 267.4794 15.47203048209990 HAWK-6B 1 55324U 23011A 26062.50458512 .00007568 00000+0 33453-3 0 9998 2 55324 40.5118 247.9898 0002995 344.4247 15.6470 15.21803280171732 HAWK-6C 1 55326U 23011C 26062.56960702 .00008462 00000+0 37304-3 0 9998 2 55326 40.4817 244.4928 0003382 332.1862 27.8766 15.21799295171758 HAWK-6A 1 55327U 23011D 26062.56962369 .00008466 00000+0 37321-3 0 9993 2 55327 40.4970 246.0934 0003056 330.2912 29.7723 15.21802811171750 HAWK-7A 1 56191U 23054P 26062.65705195 .00008574 00000+0 33463-3 0 9995 2 56191 97.2847 312.6787 0004514 62.9340 297.2359 15.26138263160925 HAWK-7B 1 56193U 23054R 26062.65693024 .00008329 00000+0 32519-3 0 9993 2 56193 97.2879 310.9025 0003965 73.0384 287.1289 15.26140329160924 HAWK-7C 1 56200U 23054Y 26062.65680848 .00008195 00000+0 32039-3 0 9990 2 56200 97.2852 311.7057 0004002 64.5810 295.5842 15.26100172160920